Location: Izdebno
(52.6670°N, 16.2170°E)
Time: 04:17:37
(UTC+02:00)

Transit 2A - Pass Details

Date: 27 February 2024
Orbit: 596 x 956 km, 66.7° (Epoch: 21 April)

Event Time Altitude Azimuth Distance (km) Brightness Sun altitude
Rises 23:07:04 0° 299° (WNW) 2,863 - -43.9°
Reaches altitude 10° 23:10:18 10° 325° (NW) 1,991 - -44.1°
Maximum altitude 23:12:43 14° 358° (N) 1,761 - -44.2°
Drops below altitude 10° 23:15:12 10° 31° (NNE) 2,066 - -44.3°
Sets 23:18:40 0° 56° (NE) 3,051 - -44.5°
